When you browse on this site, cookies collect data to enhance your experience and personalize the content and advertising you see.
Visit our Privacy Policy to learn more. By continuing to use the site, you agree to this use of cookies and data.

Meteo pe oră la Dziergowice

Astăzi, 19 Septembrie, Sâmbătă

Timp Temperatura Precipitaţii Vânt Presiune Umiditate
00:00 +11°C° 0 mm 1 m/s 754 mmHg 58%
01:00 +11°C° 0 mm 1 m/s 754 mmHg 60%
02:00 +11°C° 0 mm 1 m/s 753 mmHg 61%
03:00 +11°C° 0 mm 1 m/s 753 mmHg 62%
04:00 +10°C° 0 mm 1 m/s 753 mmHg 63%
05:00 +11°C° 0 mm 1 m/s 753 mmHg 62%
06:00 +11°C° 0 mm 1 m/s 752 mmHg 62%
07:00 +12°C° 0 mm 1 m/s 752 mmHg 61%
08:00 +14°C° 0 mm 1 m/s 752 mmHg 55%
09:00 +15°C° 0 mm 2 m/s 752 mmHg 49%
10:00 +17°C° 0 mm 2 m/s 752 mmHg 43%
11:00 +18°C° 0 mm 2 m/s 751 mmHg 40%
12:00 +20°C° 0 mm 2 m/s 751 mmHg 36%
13:00 +21°C° 0 mm 2 m/s 751 mmHg 33%
14:00 +21°C° 0 mm 2 m/s 751 mmHg 34%
15:00 +22°C° 0 mm 1 m/s 750 mmHg 35%
16:00 +22°C° 0 mm 1 m/s 750 mmHg 36%
17:00 +19°C° 0 mm 2 m/s 750 mmHg 41%
18:00 +17°C° 0 mm 2 m/s 750 mmHg 46%
19:00 +16°C° 0 mm 2 m/s 749 mmHg 51%
20:00 +15°C° 0 mm 2 m/s 749 mmHg 53%
21:00 +15°C° 0 mm 2 m/s 750 mmHg 56%
22:00 +14°C° 0 mm 2 m/s 750 mmHg 58%
23:00 +14°C° 0 mm 2 m/s 749 mmHg 60%

Mâine, 20 Septembrie, Duminică

Timp Temperatura Precipitaţii Vânt Presiune Umiditate
00:00 +13°C° 0 mm 1 m/s 749 mmHg 62%
01:00 +13°C° 0 mm 1 m/s 749 mmHg 64%
02:00 +12°C° 0 mm 1 m/s 749 mmHg 66%
03:00 +12°C° 0 mm 1 m/s 749 mmHg 67%
04:00 +12°C° 0 mm 1 m/s 748 mmHg 69%
05:00 +12°C° 0 mm 1 m/s 749 mmHg 68%
06:00 +13°C° 0 mm 1 m/s 749 mmHg 68%
07:00 +13°C° 0 mm 1 m/s 749 mmHg 68%
08:00 +15°C° 0 mm 1 m/s 749 mmHg 62%
09:00 +16°C° 0 mm 1 m/s 749 mmHg 57%
10:00 +19°C° 0 mm 1 m/s 749 mmHg 52%
11:00 +19°C° 0 mm 2 m/s 748 mmHg 49%
12:00 +20°C° 0 mm 2 m/s 748 mmHg 46%
13:00 +23°C° 0 mm 2 m/s 748 mmHg 42%
14:00 +23°C° 0 mm 2 m/s 748 mmHg 43%
15:00 +23°C° 0 mm 1 m/s 747 mmHg 44%
16:00 +23°C° 0 mm 1 m/s 747 mmHg 45%
17:00 +21°C° 0 mm 1 m/s 747 mmHg 50%
18:00 +19°C° 0 mm 1 m/s 747 mmHg 55%
19:00 +18°C° 0 mm 1 m/s 747 mmHg 60%
20:00 +16°C° 0 mm 1 m/s 747 mmHg 62%
21:00 +16°C° 0 mm 1 m/s 748 mmHg 65%
22:00 +15°C° 0 mm 1 m/s 748 mmHg 67%
23:00 +15°C° 0 mm 1 m/s 747 mmHg 69%

Poimâine, 21 Septembrie, Luni

Timp Temperatura Precipitaţii Vânt Presiune Umiditate
00:00 +14°C° 0 mm 1 m/s 747 mmHg 71%
01:00 +14°C° 0 mm 1 m/s 747 mmHg 73%
02:00 +14°C° 0 mm 1 m/s 747 mmHg 74%
03:00 +14°C° 0 mm 1 m/s 747 mmHg 74%
04:00 +14°C° 0 mm 1 m/s 747 mmHg 74%
05:00 +14°C° 0 mm 1 m/s 747 mmHg 71%
06:00 +15°C° 0 mm 1 m/s 747 mmHg 68%
07:00 +16°C° 0 mm 1 m/s 747 mmHg 65%
08:00 +19°C° 0 mm 1 m/s 747 mmHg 57%
09:00 +20°C° 0 mm 2 m/s 747 mmHg 49%
10:00 +24°C° 0 mm 2 m/s 748 mmHg 41%
11:00 +25°C° 0 mm 2 m/s 747 mmHg 38%
12:00 +25°C° 0 mm 3 m/s 747 mmHg 36%
13:00 +26°C° 0 mm 3 m/s 747 mmHg 34%
14:00 +26°C° 0 mm 3 m/s 747 mmHg 36%
15:00 +26°C° 0 mm 2 m/s 747 mmHg 38%
16:00 +26°C° 0 mm 2 m/s 746 mmHg 41%
17:00 +24°C° 0 mm 2 m/s 746 mmHg 45%
18:00 +21°C° 0 mm 2 m/s 746 mmHg 48%
19:00 +20°C° 0 mm 1 m/s 746 mmHg 52%
20:00 +20°C° 0 mm 1 m/s 746 mmHg 53%
21:00 +18°C° 0 mm 2 m/s 746 mmHg 54%
22:00 +18°C° 0 mm 2 m/s 746 mmHg 55%
23:00 +17°C° 0 mm 2 m/s 746 mmHg 56%

22 Septembrie, Marţi

Timp Temperatura Precipitaţii Vânt Presiune Umiditate
00:00 +17°C° 0 mm 2 m/s 746 mmHg 57%
01:00 +17°C° 0 mm 2 m/s 746 mmHg 57%
02:00 +16°C° 0 mm 2 m/s 746 mmHg 57%
03:00 +16°C° 0 mm 2 m/s 745 mmHg 57%
04:00 +16°C° 0 mm 2 m/s 745 mmHg 57%
05:00 +16°C° 0 mm 2 m/s 745 mmHg 57%
06:00 +17°C° 0 mm 2 m/s 745 mmHg 56%
07:00 +17°C° 0 mm 2 m/s 745 mmHg 56%
08:00 +20°C° 0 mm 3 m/s 745 mmHg 50%
09:00 +22°C° 0 mm 3 m/s 745 mmHg 44%
10:00 +25°C° 0 mm 4 m/s 745 mmHg 38%
11:00 +26°C° 0 mm 4 m/s 745 mmHg 37%
12:00 +27°C° 0 mm 5 m/s 744 mmHg 36%
13:00 +27°C° 0 mm 5 m/s 744 mmHg 35%
14:00 +27°C° 0 mm 4 m/s 743 mmHg 37%
15:00 +27°C° 0 mm 4 m/s 743 mmHg 39%
16:00 +27°C° 0 mm 3 m/s 742 mmHg 41%
17:00 +25°C° 0 mm 3 m/s 742 mmHg 44%
18:00 +22°C° 0 mm 3 m/s 742 mmHg 47%
19:00 +20°C° 0 mm 2 m/s 742 mmHg 50%
20:00 +20°C° 0 mm 3 m/s 742 mmHg 51%
21:00 +19°C° 0 mm 3 m/s 742 mmHg 52%
22:00 +19°C° 0 mm 3 m/s 742 mmHg 54%
23:00 +18°C° 0 mm 3 m/s 741 mmHg 54%

23 Septembrie, Miercuri

Timp Temperatura Precipitaţii Vânt Presiune Umiditate
00:00 +18°C° 0 mm 3 m/s 741 mmHg 55%
01:00 +18°C° 0 mm 2 m/s 740 mmHg 55%
02:00 +18°C° 0 mm 2 m/s 740 mmHg 55%
03:00 +18°C° 0 mm 3 m/s 740 mmHg 55%
04:00 +17°C° 0 mm 3 m/s 740 mmHg 55%
05:00 +18°C° 0 mm 3 m/s 740 mmHg 56%
06:00 +18°C° 0 mm 3 m/s 739 mmHg 57%
07:00 +18°C° 0 mm 3 m/s 739 mmHg 58%
08:00 +20°C° 0 mm 4 m/s 739 mmHg 56%
09:00 +22°C° 0 mm 5 m/s 739 mmHg 54%
10:00 +24°C° 0 mm 6 m/s 739 mmHg 53%
11:00 +24°C° 0 mm 6 m/s 739 mmHg 51%
12:00 +26°C° 0 mm 5 m/s 739 mmHg 50%
13:00 +27°C° 0 mm 5 m/s 739 mmHg 49%
14:00 +27°C° 0 mm 5 m/s 739 mmHg 50%
15:00 +26°C° 0 mm 4 m/s 738 mmHg 52%
16:00 +26°C° 0 mm 4 m/s 738 mmHg 53%
17:00 +24°C° 0.5 mm 3 m/s 738 mmHg 60%
18:00 +23°C° 0.5 mm 2 m/s 738 mmHg 66%
19:00 +20°C° 0.5 mm 2 m/s 738 mmHg 72%
20:00 +20°C° 0.3 mm 2 m/s 738 mmHg 74%
21:00 +20°C° 0.3 mm 2 m/s 738 mmHg 76%
22:00 +19°C° 0.3 mm 2 m/s 738 mmHg 77%
23:00 +19°C° 0.2 mm 2 m/s 738 mmHg 78%

24 Septembrie, Joi

Timp Temperatura Precipitaţii Vânt Presiune Umiditate
00:00 +19°C° 0.2 mm 2 m/s 738 mmHg 80%
01:00 +19°C° 0.2 mm 3 m/s 738 mmHg 81%
02:00 +19°C° 0.4 mm 3 m/s 738 mmHg 82%
03:00 +18°C° 0.4 mm 3 m/s 738 mmHg 83%
04:00 +18°C° 0.4 mm 3 m/s 738 mmHg 84%
05:00 +18°C° 0.5 mm 2 m/s 738 mmHg 85%
06:00 +18°C° 0.5 mm 2 m/s 738 mmHg 86%
07:00 +18°C° 0.5 mm 2 m/s 739 mmHg 86%
08:00 +18°C° 0.3 mm 2 m/s 739 mmHg 85%
09:00 +20°C° 0.3 mm 1 m/s 739 mmHg 83%
10:00 +20°C° 0.3 mm 1 m/s 739 mmHg 81%
11:00 +20°C° 0 mm 1 m/s 739 mmHg 79%
12:00 +21°C° 0 mm 1 m/s 739 mmHg 77%
13:00 +21°C° 0 mm 1 m/s 739 mmHg 75%
14:00 +22°C° 0 mm 1 m/s 739 mmHg 73%
15:00 +21°C° 0 mm 2 m/s 739 mmHg 71%
16:00 +23°C° 0 mm 2 m/s 738 mmHg 69%
17:00 +21°C° 0 mm 2 m/s 738 mmHg 74%
18:00 +20°C° 0 mm 2 m/s 738 mmHg 79%
19:00 +18°C° 0 mm 2 m/s 738 mmHg 84%
20:00 +18°C° 0 mm 2 m/s 738 mmHg 85%
21:00 +18°C° 0 mm 2 m/s 738 mmHg 86%
22:00 +17°C° 0 mm 2 m/s 738 mmHg 87%
23:00 +17°C° 0 mm 2 m/s 737 mmHg 87%
Arată mai mult